Location: ???????
(38.3360°N, 23.6977°E)
Time: 13:49:12
(UTC+00:00)

ATLAS 5 CENTAUR R/B - Pass Details

Date: 17 November 2025
Orbit: 373 x 1090 km, 63.3° (Epoch: 06 December)

Event Time Altitude Azimuth Distance (km) Brightness Sun altitude
Rises 16:57:56 0° 312° (NW) 2,960 5.6 -20.9°
Reaches altitude 10° 17:00:23 10° 299° (WNW) 2,167 5.1 -21.4°
Maximum altitude 17:04:28 26° 244° (WSW) 1,531 4.2 -22.2°
Drops below altitude 10° 17:09:14 10° 190° (S) 2,555 4.9 -23.1°
Sets 17:12:22 0° 179° (S) 3,611 5.5 -23.7°
